Location: Banff
(51.1667°N, 115.5667°W)
Time: 10:29:50
(UTC+00:00)

SR - Pass Details

Date: 28 November 2020
Orbit: 575 x 880 km, 66.7° (Epoch: 19 January)

Event Time Altitude Azimuth Distance (km) Brightness Sun altitude
Rises 02:06:38 0° 194° (SSW) 2,803 ? -22.1°
Reaches altitude 10° 02:08:53 10° 186° (S) 1,930 ? -22.4°
Enters shadow 02:11:16 28° 163° (SSE) 1,153 ? -22.8°
